Regional Weather Roundup
Issued by NWS Jackson, KY

Home | Current Version | Previous Version | Text Only | Print | Product List | Glossary Off
Versions: 1 2 3 4 5 6 7 8 9 10 11 12 13 14 15 16 17 18 19 20 21 22 23 24 25 26 27

000
ASUS43 KJKL 230410
RWRJKL

EAST KENTUCKY HOURLY WEATHER ROUNDUP
NATIONAL WEATHER SERVICE JACKSON KY
1200 AM EDT MON OCT 23 2017

NOTE: "FAIR" INDICATES FEW OR NO CLOUDS BELOW 12,000 FEET WITH
NO SIGNIFICANT WEATHER AND/OR OBSTRUCTIONS TO VISIBILITY.

* THESE REPORTS ARE NOT UNDER NWS QUALITY CONTROL AND MAY NOT
  REPORT WEATHER SUCH AS PRECIPITATION AND FOG.

KYZ079-080-083-085-087-088-110-112-115-119-120-230500
...EASTERN KENTUCKY...

CITY           SKY/WX    TMP DP  RH WIND       PRES   REMARKS
JACKSON        PTCLDY    66  52  60 VRB5      30.10F
LONDON         CLOUDY    65  53  65 SE6       30.07F
SOMERSET*      PTCLDY    64  52  63 E5        30.05F
MONTICELLO*    CLOUDY    66  56  70 E7        30.05F
WILLIAMSBURG*  CLOUDY    64  55  72 SE6       30.06F
MIDDLESBORO*   CLOUDY    61  56  85 CALM      30.11F
HARLAN APT*    CLOUDY    68  52  56 CALM      30.13F
PIKE CO APT*     N/A     66  52  59 SE8       30.14F
BIG SANDY APT* CLOUDY    67  52  58 S8        30.13F
MOREHEAD APT*  CLOUDY    64  52  63 VRB3      30.09F
$$

KYZ035-036-041-042-044-050-067-078-099-230500
...CENTRAL KENTUCKY...

CITY           SKY/WX    TMP DP  RH WIND       PRES   REMARKS
MT STERLING*   CLOUDY    64  50  59 SE6       30.08F
FLEMING/MASON* CLOUDY    63  51  66 SE8       30.07F
DANVILLE*      PTCLDY    63  52  67 SE5       30.04F
LEXINGTON      PTCLDY    67  52  58 SE9       30.04F
FRANKFORT      CLOUDY    66  52  60 SE7       30.01F
LOUISVILLE     CLOUDY    70  57  63 SE12      29.98F
LEBANON*         N/A     70  55  60 SE13      30.01F
GLASGOW*       MOCLDY    70  58  65 SE8       29.97F
BOWLING GREEN  CLOUDY    72  62  71 SE10      29.94F
$$

KYZ091>093-OHZ055-061-077-WVZ005-015-034-035-042-230500
...SOUTHERN OHIO/WEST VIRGINIA...

CITY           SKY/WX    TMP DP  RH WIND       PRES   REMARKS
COVINGTON      CLOUDY    67  53  61 SE12      30.02F
COLUMBUS       CLOUDY    65  51  60 SE5       30.07F
DAYTON         CLOUDY    63  50  62 SE10      30.04F
WILMINGTON     CLOUDY    63  51  65 SE7       30.05F
HUNTINGTON     CLOUDY    61  53  75 SE6       30.10F
CHARLESTON     CLOUDY    69  48  47 E3        30.14F
PINEVILLE*     CLOUDY    58  52  80 MISG      30.25S
BECKLEY        CLOUDY    62  50  64 SE9G21    30.22F
BLUEFIELD      CLOUDY    61  50  67 VRB5G18   30.25F
LOGAN CO APT*    N/A     68  50  52 S12G21    30.15F
$$

VAZ002-007-008-TNZ017-027-036-066-071-230500
...SOUTHWEST VIRGINIA/EAST TENNESSEE...

CITY           SKY/WX    TMP DP  RH WIND       PRES   REMARKS
WISE*          CLOUDY    63  54  72 S12G20    30.19F
JONESVILLE*      N/A     66  54  63 CALM      30.16F
ABINGDON*      CLOUDY    68  54  61 S9G22     30.21F
BRISTOL        CLOUDY    67  57  70 E5        30.17F
MORRISTOWN*    CLEAR     68  57  68 SE9G16    30.12F
SEVIERVILLE*   CLEAR     61  55  82 CALM      30.09F
KNOXVILLE      CLOUDY    70  59  68 SE9       30.08F
LAFOLLETTE*    MOCLDY    61  59  94 CALM      30.13F
OAK RIDGE      CLOUDY    66  60  81 CALM      30.10F
CROSSVILLE     CLOUDY    66  57  72 SE12G20   30.08F
NASHVILLE      CLOUDY    73  62  68 SE14      29.94F
$$

...KEY TO REMARKS...
VSB - VISIBILITY IN MILES
WCI - WIND CHILL INDEX
HX  - HEAT INDEX

$$




USA.gov is the U.S. government's official web portal to all federal, state and local government web resources and services.